Temp
12 13 14 12 12 13 10 11 11 16 14 16 17 17 16 15 14 14 14 13 13 13 13 12 12 12 11 11 11 11 10 9 10 10 10 11 11 12 12 12 12 12 13 13
7 12 12 12 13 13 13 13 12 13 13 17 17 16 15 15 14 13 13 13 13 12 12 12 11 11 11 11 11 11 11 10 10 10 10 10 10 10 10 11 11 12 12 12
13 12 10 10 12 13 14 15 14 14 17 17 16 15 15 15 14 14 13 13 12 12 12 10 10 10 10 10 10 10 10 10 10 10 10 10 10 9 10 10 10 9 10 10
11 11 15 16 14 15 15 16 16 15 16 16 16 16 15 15 15 14 13 12 12 12 11 10 10 9 10 10 10 9 9 9 9 10 9 9 9 8 8 8 9 9 9 9
11 15 18 18 13 13 14 17 18 16 17 17 16 14 14 15 15 14 14 13 13 11 10 10 10 9 10 10 9 9 8 8 8 9 9 8 8 7 7 8 8 8 8 8
11 13 17 19 14 14 14 16 18 17 17 17 15 14 17 16 15 14 14 12 11 11 10 10 10 9 10 10 9 8 7 7 7 7 8 7 7 7 7 7 8 8 8 8
12 13 17 17 14 14 16 19 17 16 16 16 14 16 14 13 13 14 13 11 10 10 10 10 9 8 9 9 8 6 7 7 7 7 7 7 7 7 8 8 8 8 9 8
13 13 14 14 12 16 19 18 18 16 16 15 15 16 14 12 13 12 12 11 10 10 9 9 8 7 9 8 6 6 7 7 7 7 6 6 7 7 7 8 8 8 7 7
16 17 16 14 18 16 16 18 16 16 15 15 14 14 15 13 13 12 11 10 10 9 9 8 7 7 8 8 6 6 7 7 7 7 6 6 6 6 8 7 7 7 7 6
15 18 18 15 15 16 16 16 16 16 15 15 14 14 14 14 13 12 12 11 10 9 9 9 8 7 7 7 6 6 7 7 6 6 6 6 6 6 6 7 6 7 6 6
15 16 17 17 17 17 16 16 15 14 14 14 14 13 13 13 13 13 12 11 10 9 9 9 9 8 7 6 6 6 6 6 6 6 6 6 5 5 4 5 3 3 3 2
16 18 19 19 20 18 17 15 15 14 13 13 12 13 13 13 13 12 12 11 10 9 9 9 8 8 7 6 5 6 6 6 6 6 5 5 5 5 4 3 3 3 1 0
16 17 18 18 17 17 16 15 15 14 14 13 13 12 12 12 12 11 11 10 9 8 8 8 7 7 7 6 5 5 6 6 5 5 5 4 4 4 3 3 2 2 1 1
16 16 15 16 16 16 15 14 14 13 13 12 12 12 11 11 11 11 10 9 8 8 7 7 7 7 6 5 5 4 4 4 3 3 3 3 3 3 2 2 2 1 1 0
15 16 15 16 16 15 15 14 12 11 12 12 11 11 11 10 10 10 9 8 7 7 7 6 6 6 6 5 4 4 4 3 3 3 2 1 1 1 1 1 1 1 1 0
15 14 14 14 14 13 13 12 11 11 11 12 12 11 10 10 9 9 8 7 6 6 6 6 6 5 4 4 3 3 3 3 2 1 1 0 1 0 1 1 1 0 0 0
12 11 12 11 12 13 13 12 12 11 10 11 12 11 10 9 9 9 8 7 6 6 6 5 5 5 3 3 3 3 2 1 1 0 -1 -0 0 0 0 -0 -0 -0 -0 -1
13 13 13 13 12 12 11 11 11 11 10 10 10 10 9 9 8 8 7 6 6 6 5 4 4 4 3 3 2 1 1 1 0 -0 -0 -0 -1 -1 -1 -1 -1 -2 -2 -2
13 12 12 12 11 11 11 10 10 9 9 9 9 8 8 8 7 7 7 5 4 4 3 3 3 3 2 2 1 0 -0 -0 -1 -1 -2 -2 -2 -2 -2 -2 -2 -2 -2 -3
9 9 9 10 9 8 8 8 8 8 7 7 7 6 5 5 5 6 5 4 4 4 3 2 2 2 2 1 -0 -1 -1 -1 -1 -2 -2 -2 -2 -2 -2 -3 -3 -3 -3 -3
8 7 6 6 6 6 6 6 6 6 6 5 5 5 5 5 4 5 4 4 4 4 3 2 2 1 -0 -1 -2 -1 -2 -2 -2 -2 -2 -3 -3 -4 -4 -4 -4 -4 -4 -4
8 7 6 6 5 5 5 5 5 5 5 5 5 5 5 4 4 4 4 5 2 2 2 1 1 0 -0 -1 -2 -2 -2 -3 -3 -3 -4 -4 -5 -5 -5 -5 -5 -5 -5 -5
6 6 6 6 6 6 4 4 4 4 4 4 3 3 3 4 3 3 3 2 1 1 1 0 0 -0 -1 -2 -2 -3 -3 -4 -4 -5 -5 -6 -6 -7 -7 -7 -7 -7 -8 -8
5 5 6 5 4 4 5 4 3 3 2 2 2 2 2 2 2 3 3 1 0 0 0 -0 -0 -1 -2 -3 -3 -4 -4 -5 -5 -6 -6 -7 -8 -8 -8 -9 -9 -9 -9 -9
4 4 3 3 3 4 4 3 1 1 1 1 1 1 1 2 1 0 -0 -1 -1 -1 -1 -2 -2 -3 -4 -4 -4 -5 -5 -6 -6 -7 -8 -8 -8 -8 -9 -9 -10 -10 -10 -10
3 4 4 4 4 4 4 2 3 2 1 1 -0 -1 -0 -0 -0 -1 -1 -2 -2 -2 -2 -2 -3 -5 -5 -5 -5 -6 -7 -7 -7 -8 -8 -8 -8 -9 -9 -10 -10 -10 -11 -11
3 3 3 2 2 2 2 2 2 1 1 1 -1 -2 -2 -2 -2 -2 -3 -3 -3 -4 -4 -5 -6 -6 -6 -6 -7 -7 -7 -8 -8 -8 -8 -9 -9 -9 -9 -9 -10 -10 -11 -11
Height
784 776 774 778 775 773 788 774 773 737 745 734 730 729 733 737 738 739 737 738 737 737 736 733 731 728 726 723 718 714 709 706 706 705 704 702 701 701 703 707 707 710 714 716
805 777 775 771 765 763 765 762 761 753 744 729 726 730 734 734 739 738 738 738 737 737 737 736 735 733 731 729 726 723 720 717 716 714 711 711 711 712 712 713 714 714 718 721
773 777 786 775 752 750 747 745 746 746 726 726 729 730 731 732 735 736 737 738 738 738 738 739 737 737 735 733 732 729 727 724 722 721 719 720 720 719 719 719 722 723 724 726
784 778 752 734 739 736 739 732 731 731 726 726 728 726 727 729 730 732 736 737 738 738 739 739 738 737 736 735 734 733 732 731 730 728 727 726 725 725 724 727 727 727 728 729
784 759 729 721 737 739 738 721 715 721 718 719 722 729 727 724 726 729 731 736 738 739 740 740 739 738 737 736 735 735 734 733 732 730 730 730 729 729 729 729 729 729 732 733
783 773 739 713 728 732 734 725 707 714 716 718 725 726 711 715 720 726 729 733 737 739 740 740 740 739 738 736 736 736 736 736 735 733 733 733 733 732 733 733 734 735 737 738
775 764 729 715 730 732 728 713 708 712 714 718 724 717 720 721 723 725 728 732 735 737 738 738 740 740 739 738 737 737 736 736 735 734 734 734 734 734 735 736 737 737 737 737
758 758 744 723 736 724 701 703 705 710 712 714 715 715 718 722 723 726 728 730 733 734 735 736 737 738 738 739 739 738 738 738 737 737 737 737 737 736 735 734 735 736 735 735
733 720 713 715 702 706 705 702 706 707 710 712 714 714 714 717 720 722 725 727 730 732 732 734 735 736 737 737 738 739 739 739 740 740 739 739 738 738 737 736 736 736 738 740
730 705 702 709 706 704 703 704 704 704 704 706 709 711 712 713 715 717 720 722 725 728 729 730 732 733 735 736 737 739 740 741 741 740 740 739 739 740 740 739 739 740 741 742
719 701 702 699 696 695 695 697 700 700 701 702 702 701 703 705 708 711 714 716 719 722 725 726 728 731 732 733 735 737 739 740 741 740 740 740 740 740 741 742 742 742 743 742
701 682 686 683 681 684 687 689 692 695 695 695 697 697 699 700 702 704 706 710 714 715 718 721 724 726 729 731 733 734 736 737 738 739 740 741 741 741 740 740 739 739 739 739
688 683 684 681 681 681 683 684 684 686 686 687 686 689 690 692 696 699 702 704 706 709 712 715 717 720 724 727 730 732 734 736 737 738 740 741 741 742 742 741 740 740 740 739
683 683 681 679 676 673 677 678 678 679 680 680 680 680 682 682 683 688 691 693 699 704 707 710 712 713 716 721 724 727 730 733 735 737 738 740 741 741 741 740 740 740 739 738
668 669 667 668 670 669 668 672 674 673 673 673 674 676 678 678 677 678 683 686 689 695 700 704 707 710 713 715 719 723 727 730 732 734 736 737 738 738 738 738 738 737 736 736
658 659 659 659 659 662 662 663 665 664 665 666 665 668 669 672 675 675 676 681 685 686 692 697 701 705 709 712 715 718 722 725 727 729 731 733 734 735 735 734 733 733 732 731
657 654 654 657 655 654 654 653 656 655 656 657 657 659 663 664 666 669 672 675 679 684 686 691 696 700 705 708 711 713 716 719 722 725 727 728 729 730 730 731 730 729 728 728
644 641 643 643 644 646 650 647 649 649 648 649 651 653 658 659 659 661 664 671 675 678 683 688 693 696 700 704 709 712 714 716 718 721 723 724 725 726 727 727 727 726 725 724
634 632 632 635 637 640 645 643 644 646 645 644 645 647 651 654 656 659 662 666 672 674 678 684 688 694 699 702 705 710 713 715 717 718 720 721 722 723 723 723 723 722 722 720
629 630 630 631 633 636 644 642 639 640 642 642 643 644 646 649 651 653 658 661 665 670 674 679 686 691 696 699 702 706 709 712 714 715 717 719 719 720 720 719 719 718 718 716
626 629 629 629 631 634 637 643 641 638 637 639 641 642 643 647 649 650 655 657 660 664 669 675 682 688 693 697 700 703 707 709 711 713 714 715 716 716 716 716 715 715 714 712
621 622 626 630 630 632 635 635 637 638 636 637 638 640 643 644 646 650 654 655 657 661 667 671 677 683 689 695 698 701 705 707 709 711 711 713 714 714 714 714 713 711 710 708
622 621 624 629 629 628 631 631 633 635 636 636 636 639 642 645 645 646 650 654 656 661 665 669 675 682 688 692 697 699 702 706 708 709 710 711 712 712 712 711 710 708 706 703
625 622 624 627 632 631 630 629 633 636 636 635 635 638 640 644 648 651 652 652 655 659 664 669 674 680 686 690 694 697 701 703 703 704 707 709 709 709 709 709 707 705 703 700
626 625 626 629 630 629 628 627 632 635 636 635 636 637 641 642 646 651 654 655 657 661 667 673 676 680 685 689 693 696 700 703 703 703 704 705 706 706 706 705 704 701 699 696
628 624 625 627 628 628 628 627 630 633 633 634 638 640 642 641 648 650 652 657 660 663 668 675 679 681 685 690 693 696 698 700 702 703 703 703 704 705 704 702 700 697 695 692
625 624 624 625 627 627 626 627 629 630 630 631 635 638 640 642 648 652 655 660 663 665 671 676 681 684 686 690 693 695 697 699 700 701 701 702 702 703 701 699 696 693 690 686
Wind_Speed
13 15 13 12 11 10 10 11 5 2 9 13 12 8 6 4 4 4 5 6 7 8 9 13 15 18 19 20 20 20 23 27 26 24 24 25 24 22 21 18 17 16 14 11
4 3 7 14 16 16 17 17 18 20 22 17 6 4 6 7 5 5 4 5 5 6 7 9 13 14 15 16 16 16 16 18 18 19 21 21 21 21 20 20 18 17 15 11
4 3 6 8 13 19 10 10 13 8 6 3 5 6 8 8 7 7 5 4 4 5 5 7 9 10 12 13 12 13 14 15 15 15 15 16 15 17 18 17 15 15 14 12
5 5 3 2 1 1 14 13 15 16 15 10 9 8 7 7 9 9 7 5 4 3 3 4 6 7 8 9 10 11 12 12 12 12 12 12 15 16 15 12 13 14 13 12
3 5 12 7 6 6 7 6 12 19 15 11 7 6 14 14 13 11 8 6 4 3 3 4 4 5 5 7 8 10 12 12 13 13 13 12 14 14 13 15 14 14 11 10
1 4 5 3 8 5 4 5 9 9 9 8 6 5 4 3 13 11 10 9 7 5 4 4 3 4 4 5 6 8 9 9 9 10 11 11 11 11 11 11 11 10 9 9
8 5 9 5 10 7 2 2 7 9 8 7 8 8 4 4 5 10 13 12 10 9 7 5 3 3 3 3 5 5 6 7 8 9 10 10 9 10 9 8 8 9 9 10
5 6 9 13 9 6 3 3 7 8 8 9 12 10 6 5 6 8 8 11 12 11 10 8 6 4 3 1 1 3 4 5 6 8 7 7 7 7 9 9 8 10 11 10
8 6 2 19 8 14 3 4 4 8 7 9 9 12 11 9 10 10 12 13 13 13 11 10 9 8 7 4 2 1 1 2 3 4 5 7 8 8 8 8 9 9 8 8
5 11 16 14 18 16 12 12 9 8 9 9 11 9 10 10 10 10 14 15 15 14 14 13 12 11 10 7 5 4 3 2 1 2 3 5 5 6 7 7 7 7 7 8
15 22 19 21 18 15 13 13 15 13 12 13 12 12 11 10 10 10 13 15 16 16 15 15 13 13 12 11 9 7 6 4 2 1 3 4 5 5 5 4 4 5 5 6
11 21 14 14 12 5 10 10 10 11 11 13 13 14 12 11 11 12 14 16 16 17 17 16 14 14 14 13 12 10 8 6 4 2 1 3 5 6 6 8 8 9 6 6
27 24 19 17 17 16 13 13 11 11 12 12 11 12 13 11 13 14 14 16 18 19 18 16 15 16 15 14 13 11 10 7 6 5 4 4 6 7 7 5 8 6 6 7
22 22 23 22 14 11 11 13 11 10 10 10 11 13 15 12 14 16 17 20 20 18 17 16 16 17 17 16 15 13 10 10 8 7 6 5 6 6 7 6 6 7 8 11
27 19 21 19 18 16 13 9 11 12 12 12 14 11 12 11 12 15 19 21 21 20 18 17 17 17 17 18 17 15 11 9 8 6 6 7 7 7 7 7 8 8 9 9
13 14 17 20 20 19 17 14 14 14 13 13 11 11 17 17 16 16 18 20 20 17 20 19 18 17 18 19 17 14 12 11 11 9 9 9 8 7 7 8 8 9 10 10
19 20 16 13 14 16 19 14 14 12 12 13 12 14 14 15 15 15 17 21 21 18 22 22 20 21 21 20 19 17 15 13 10 8 9 9 8 8 7 8 9 10 11 11
22 22 18 16 13 11 13 12 11 12 12 12 12 10 10 9 12 13 18 19 19 17 19 20 21 23 22 20 18 15 13 12 12 11 9 8 8 7 7 8 9 11 12 13
15 18 16 15 12 11 12 10 10 12 12 10 9 9 11 13 13 13 17 20 18 16 18 22 23 22 20 17 15 13 12 12 10 9 7 6 6 7 8 9 10 11 13 14
11 8 5 8 7 7 11 12 10 7 9 8 9 6 6 11 13 14 19 18 21 17 23 26 25 21 19 17 17 15 13 12 10 8 7 6 7 7 8 9 12 13 13 13
9 5 6 7 7 7 9 10 8 5 7 8 8 7 7 10 13 15 14 8 18 20 24 27 25 20 18 18 18 14 12 11 10 9 7 6 6 7 8 9 11 12 13 14
7 6 5 5 5 4 7 7 5 4 3 5 6 6 6 7 10 13 15 13 20 25 26 27 22 20 20 17 17 13 12 11 9 8 6 5 6 7 9 10 11 13 14 16
4 4 4 6 6 5 5 5 5 5 5 5 6 6 6 6 11 9 7 14 23 26 24 21 20 20 18 16 14 13 12 10 7 5 4 4 5 6 9 11 13 14 16 16
2 4 4 5 4 3 4 4 5 5 5 4 5 6 9 7 6 9 8 19 24 26 22 21 21 20 18 15 14 13 11 9 7 5 3 3 5 6 9 12 14 15 16 17
4 4 4 4 5 4 3 4 4 4 4 3 3 5 9 8 7 9 15 18 23 21 18 19 21 20 15 14 13 10 8 6 5 3 2 2 4 7 9 11 14 15 17 18
5 4 4 7 5 6 7 8 3 6 7 6 5 6 8 10 12 17 20 22 20 21 23 21 21 15 14 13 11 9 8 6 4 3 2 1 4 7 9 11 14 17 19 20
7 4 3 3 10 10 7 7 6 5 9 9 8 11 12 16 17 19 20 19 20 22 21 18 15 13 13 12 10 9 7 6 5 3 1 1 4 8 10 13 17 19 20 20
Wind_Direction
270 276 270 252 256 227 214 236 245 338 281 288 298 286 257 267 278 293 313 340 5 9 12 14 19 20 21 23 24 28 37 38 39 44 59 69 73 75 81 83 84 92 93 91
277 297 269 256 257 243 245 244 255 266 276 275 295 298 232 241 234 249 269 305 338 354 4 16 13 13 18 25 30 33 42 45 42 41 44 50 63 70 77 79 84 88 92 102
277 330 311 266 240 224 220 222 218 233 254 183 256 240 240 243 230 235 234 246 297 328 349 0 13 7 16 19 27 44 45 43 44 49 49 50 57 61 61 63 66 72 76 77
286 300 266 93 109 201 225 251 232 252 263 251 254 263 265 243 245 234 225 228 235 270 311 345 355 11 14 27 34 42 51 50 51 54 52 53 55 55 58 61 60 62 61 63
278 281 285 230 203 185 190 278 228 237 255 257 243 268 264 238 227 230 225 225 239 253 282 316 340 0 10 30 41 47 46 46 43 47 52 50 53 52 47 53 60 54 56 62
279 271 272 82 144 133 141 269 187 206 237 244 178 247 267 170 198 208 208 208 215 234 258 275 307 335 355 25 45 49 39 43 51 54 58 59 57 54 53 57 60 64 66 62
223 252 276 116 148 149 211 62 171 195 222 200 206 239 90 132 179 200 201 205 204 208 226 242 260 295 316 1 32 26 40 40 41 49 52 49 53 53 55 59 59 57 58 53
200 214 263 141 137 210 81 147 180 200 213 217 230 250 208 206 205 198 202 205 204 211 215 215 217 235 255 281 356 10 20 36 36 37 41 45 46 44 44 40 38 34 33 34
219 227 76 187 223 219 320 281 205 221 212 227 235 239 237 227 217 215 214 209 213 219 217 214 217 216 225 224 226 304 2 55 48 41 40 38 39 30 32 31 31 28 21 6
291 244 252 216 238 259 260 254 255 241 247 219 233 242 247 238 231 219 213 215 213 216 223 222 220 218 224 211 201 199 194 173 115 65 38 28 22 22 13 16 10 3 359 352
261 265 271 270 254 255 255 245 243 251 244 246 238 236 230 230 226 224 224 214 210 214 222 226 221 220 217 206 199 202 204 205 208 70 32 12 11 2 359 3 346 332 335 337
251 255 261 273 286 263 245 239 236 241 241 231 236 241 235 235 227 219 213 210 209 211 214 220 221 219 219 211 208 207 209 210 210 198 288 327 335 325 319 317 313 309 295 298
249 262 267 272 284 280 268 245 241 245 241 248 229 227 229 228 229 229 217 210 207 209 210 211 214 217 214 208 205 207 212 205 195 225 257 283 297 303 302 300 310 308 286 303
243 257 264 260 258 263 248 258 244 251 247 240 240 228 222 221 214 216 212 208 203 203 205 209 210 208 203 199 196 197 198 211 216 223 230 248 268 270 262 275 287 286 286 295
251 241 250 258 263 264 261 250 240 236 238 240 223 227 222 222 211 214 212 205 194 192 197 201 204 206 196 190 188 190 190 198 208 205 222 237 259 245 247 255 267 280 289 290
255 243 250 249 249 249 255 251 248 244 242 246 239 221 224 224 228 219 207 196 184 191 192 192 196 195 185 183 181 185 193 204 207 220 238 254 239 244 257 268 278 284 288 293
262 260 256 250 249 256 252 249 249 241 238 242 236 232 221 218 220 219 206 199 196 193 187 187 191 188 196 195 198 199 201 208 215 217 222 226 228 238 254 266 274 281 287 295
250 255 254 250 254 251 252 247 248 237 233 238 243 232 229 221 222 212 200 194 193 187 189 187 185 190 192 193 198 201 209 205 196 201 209 217 229 241 256 264 273 281 287 292
248 247 247 241 246 252 258 248 240 242 247 235 228 223 228 230 224 217 193 181 186 178 179 181 187 188 188 194 203 200 190 191 192 197 211 217 236 249 254 264 272 280 286 290
243 239 228 232 230 228 250 241 232 233 234 233 229 220 212 218 208 200 180 187 192 190 176 182 181 187 203 205 191 189 191 191 191 198 207 218 233 250 262 272 277 281 285 287
233 224 213 205 217 209 217 251 238 226 229 223 226 230 223 223 206 188 177 188 185 181 182 180 185 194 198 194 181 187 189 188 195 201 208 226 252 267 274 280 284 288 286 286
222 205 206 208 195 209 216 210 224 247 227 212 218 228 212 203 194 197 204 198 161 175 175 174 185 190 186 179 180 184 192 192 191 200 219 245 263 280 290 293 295 294 294 294
200 173 171 197 200 188 180 190 207 219 219 207 197 198 206 203 191 180 180 173 170 172 166 171 180 175 171 172 178 177 181 190 201 213 232 255 274 283 288 295 298 298 298 299
221 175 170 181 186 186 203 181 201 218 218 202 200 203 178 167 192 206 210 167 167 167 170 173 167 164 161 168 173 178 184 190 191 199 231 261 281 297 304 300 299 301 300 301
220 189 157 179 207 226 194 160 166 191 186 158 157 171 180 173 160 162 156 153 150 152 153 157 153 154 162 169 170 171 179 189 195 191 203 265 304 311 305 306 306 307 304 298
225 202 191 211 236 223 202 176 188 174 167 142 141 151 152 151 150 145 142 143 141 139 141 148 154 152 161 164 168 167 169 176 178 186 189 319 322 312 314 314 315 314 307 303
228 219 183 211 236 227 209 198 187 188 183 167 153 155 148 144 142 137 136 135 132 132 136 144 152 153 160 162 163 164 165 170 173 164 155 309 325 326 328 325 323 322 320 320